Location: Bullenkuhlen
(53.7689°N, 9.7495°E)
Time: 06:45:07
(UTC+00:00)

Cosmos 1980 Rocket - Visible Passes

Search period start: 11 August 2020 00:00
Search period end: 21 August 2020 00:00
Orbit: 828 x 851 km, 71.0° (Epoch: 10 August)

Date Brightness Start Highest point End Pass type
(mag) Time Alt. Az. Time Alt. Az. Time Alt. Az.
11 Aug 2.4 19:49:29 10° NW 19:55:11 75° WSW 20:00:49 10° SSE visible
11 Aug 4.5 21:35:02 10° WNW 21:38:14 16° W 21:41:26 10° SW visible
12 Aug 2.4 19:33:47 10° NW 19:39:30 78° WSW 19:45:08 10° SSE visible
12 Aug 4.5 21:19:10 10° WNW 21:22:35 16° W 21:25:58 10° SW visible
13 Aug 4.5 21:03:20 10° WNW 21:06:56 17° W 21:10:30 10° SW visible
14 Aug 4.4 20:47:31 10° WNW 20:51:16 18° W 20:55:00 10° SW visible
15 Aug 4.4 20:31:42 10° NW 20:35:37 19° W 20:39:30 10° SW visible
16 Aug 4.4 20:15:53 10° NW 20:19:57 21° W 20:23:59 10° SSW visible
17 Aug 4.4 20:00:05 10° NW 20:04:17 22° WSW 20:08:27 10° SSW visible
18 Aug 4.4 19:44:18 10° NW 19:48:37 23° WSW 19:52:54 10° SSW visible
19 Aug 4.4 19:28:31 10° NW 19:32:57 24° WSW 19:37:21 10° SSW visible
20 Aug 4.3 19:12:44 10° NW 19:17:16 25° WSW 19:21:47 10° SSW visible
